Location: Hylvaty SDH
(49.9612°N, 16.4057°E)
Time: 11:58:54
(UTC+01:00)

A-11 Canister half - Pass Details

Date: 09 October 2020
Orbit: 1526 x 1683 km, 47.3° (Epoch: 28 October)

Event Time Altitude Azimuth Distance (km) Brightness Sun altitude
Rises 19:00:53 0° 197° (SSW) 4,689 11.8 -8.2°
Reaches altitude 10° 19:04:37 10° 185° (S) 3,696 11.1 -8.8°
Maximum altitude 19:11:42 25° 134° (SE) 2,684 9.9 -9.9°
Enters shadow 19:17:48 13° 88° (E) 3,469 10.2 -10.9°
Drops below altitude 10° 19:18:47 10° 84° (E) 3,701 - -11.1°
Sets 19:22:29 0° 72° (ENE) 4,697 - -11.7°
